AAY377 KCVG-KEYW

Flight info

Callsign AAY377
Flight time 2h 6m
Altitude 35000
Route KENLN6 SHIPR VXV THRSR HONID Q81 BULZI KRAKN1
Aircraft A320/M-SDE3FGHIRWY/LB1

Departure

Time 2026-04-30 19:15
Airport Cincinnati Northern Kentucky International Airport (KCVG)

Arrival

Time 2026-04-30 21:21
Airport Key West International Airport (KEYW)
Time Latitude Longitude Altitude Speed Heading
2026-04-30 18:54 39.05285 -84.65189 878 ft 0 kts 360°
2026-04-30 19:03 39.05269 -84.65189 878 ft 2 kts 360°
2026-04-30 19:04 39.05243 -84.65188 879 ft 2 kts 339°
2026-04-30 19:04 39.05215 -84.65165 879 ft 3 kts 282°
2026-04-30 19:05 39.05214 -84.65118 877 ft 3 kts 271°
2026-04-30 19:05 39.05217 -84.65070 874 ft 3 kts 214°
2026-04-30 19:06 39.05250 -84.65066 874 ft 3 kts 180°
2026-04-30 19:06 39.05258 -84.65066 874 ft 0 kts 180°
2026-04-30 19:07 39.05250 -84.65066 874 ft 3 kts 180°
2026-04-30 19:08 39.05171 -84.65065 874 ft 7 kts 180°
2026-04-30 19:08 39.05112 -84.65065 876 ft 2 kts 181°
2026-04-30 19:08 39.05096 -84.65066 876 ft 5 kts 181°
2026-04-30 19:09 39.04928 -84.65067 879 ft 15 kts 180°
2026-04-30 19:09 39.04832 -84.65068 878 ft 13 kts 182°
2026-04-30 19:09 39.04808 -84.65149 877 ft 10 kts 273°
2026-04-30 19:10 39.04778 -84.65299 874 ft 9 kts 191°
2026-04-30 19:10 39.04724 -84.65299 873 ft 0 kts 180°
2026-04-30 19:13 39.04658 -84.65303 872 ft 11 kts 193°
2026-04-30 19:13 39.04629 -84.65415 872 ft 19 kts 270°
2026-04-30 19:14 39.04630 -84.65882 869 ft 88 kts 269°
2026-04-30 19:14 39.04631 -84.66930 880 ft 144 kts 270°
2026-04-30 19:14 39.04646 -84.68417 991 ft 179 kts 274°
2026-04-30 19:14 39.04642 -84.69489 1395 ft 183 kts 270°
2026-04-30 19:15 39.04607 -84.71132 2191 ft 182 kts 272°
2026-04-30 19:15 39.04611 -84.75185 3277 ft 219 kts 274°
2026-04-30 19:15 39.04619 -84.77259 3704 ft 244 kts 272°
2026-04-30 19:16 39.04620 -84.78740 4084 ft 254 kts 273°
2026-04-30 19:16 39.04616 -84.81039 4916 ft 259 kts 272°
2026-04-30 19:16 39.04245 -84.85705 6596 ft 273 kts 249°
2026-04-30 19:17 39.03093 -84.87676 7352 ft 284 kts 222°
2026-04-30 19:17 38.99222 -84.88858 8862 ft 303 kts 181°
2026-04-30 19:17 38.97097 -84.88737 9633 ft 307 kts 181°
2026-04-30 19:18 38.93441 -84.88503 10384 ft 331 kts 181°
2026-04-30 19:18 38.90229 -84.88309 10726 ft 355 kts 181°
2026-04-30 19:18 38.87743 -84.88161 11300 ft 361 kts 182°
2026-04-30 19:19 38.85205 -84.88013 11976 ft 364 kts 182°
2026-04-30 19:19 38.82665 -84.87674 12635 ft 372 kts 173°
2026-04-30 19:19 38.77849 -84.84991 13884 ft 389 kts 147°
2026-04-30 19:20 38.75734 -84.82778 14440 ft 394 kts 143°
2026-04-30 19:20 38.73624 -84.80501 14988 ft 398 kts 143°
2026-04-30 19:20 38.69363 -84.75930 16045 ft 405 kts 144°
2026-04-30 19:21 38.67184 -84.73599 16576 ft 409 kts 144°
2026-04-30 19:21 38.62756 -84.68870 17604 ft 417 kts 144°
2026-04-30 19:22 38.58251 -84.64075 18605 ft 424 kts 145°
2026-04-30 19:22 38.51335 -84.56724 19828 ft 437 kts 146°
2026-04-30 19:23 38.43492 -84.51159 21007 ft 425 kts 174°
2026-04-30 19:24 38.37760 -84.50237 21842 ft 416 kts 187°
2026-04-30 19:24 38.34843 -84.50056 22267 ft 419 kts 187°
2026-04-30 19:24 38.28984 -84.49658 23087 ft 424 kts 187°
2026-04-30 19:25 38.20051 -84.49038 24214 ft 431 kts 188°
2026-04-30 19:26 38.14032 -84.48631 24919 ft 434 kts 188°
2026-04-30 19:26 38.07976 -84.48226 25611 ft 437 kts 188°
2026-04-30 19:26 38.04936 -84.48026 25921 ft 438 kts 188°
2026-04-30 19:27 37.98814 -84.47617 26559 ft 442 kts 188°
2026-04-30 19:27 37.92641 -84.46324 27174 ft 461 kts 178°
2026-04-30 19:28 37.89511 -84.45409 27492 ft 462 kts 178°
2026-04-30 19:28 37.83210 -84.43579 28126 ft 466 kts 179°
2026-04-30 19:29 37.76840 -84.41741 28617 ft 471 kts 179°
2026-04-30 19:29 37.73630 -84.40819 28890 ft 473 kts 179°
2026-04-30 19:30 37.63988 -84.38053 29669 ft 478 kts 180°
2026-04-30 19:30 37.57463 -84.36189 30157 ft 482 kts 180°
2026-04-30 19:31 37.50887 -84.34307 30518 ft 487 kts 180°
2026-04-30 19:31 37.47569 -84.33359 30795 ft 486 kts 180°
2026-04-30 19:31 37.40978 -84.31482 31315 ft 486 kts 180°
2026-04-30 19:32 37.37678 -84.30544 31552 ft 486 kts 181°
2026-04-30 19:32 37.34406 -84.29612 31802 ft 486 kts 181°
2026-04-30 19:32 37.31093 -84.28667 32002 ft 486 kts 181°
2026-04-30 19:32 37.27792 -84.27725 32246 ft 486 kts 181°
2026-04-30 19:33 37.24491 -84.26786 32522 ft 486 kts 181°
2026-04-30 19:33 37.21193 -84.25850 32789 ft 486 kts 181°
2026-04-30 19:33 37.17898 -84.24918 33058 ft 485 kts 181°
2026-04-30 19:33 37.14607 -84.23990 33295 ft 485 kts 182°
2026-04-30 19:34 37.11310 -84.23062 33570 ft 485 kts 182°
2026-04-30 19:34 37.08021 -84.22135 33797 ft 484 kts 182°
2026-04-30 19:34 37.01492 -84.20291 34330 ft 483 kts 182°
2026-04-30 19:35 36.98214 -84.19367 34562 ft 482 kts 182°
2026-04-30 19:35 36.94939 -84.18445 34781 ft 482 kts 182°
2026-04-30 19:35 36.91662 -84.17524 34985 ft 482 kts 182°
2026-04-30 19:36 36.85140 -84.15691 35071 ft 479 kts 182°
2026-04-30 19:36 36.75403 -84.12965 35074 ft 477 kts 182°
2026-04-30 19:37 36.68867 -84.11154 35066 ft 485 kts 182°
2026-04-30 19:37 36.62212 -84.09323 35059 ft 495 kts 182°
2026-04-30 19:38 36.55474 -84.07430 35041 ft 497 kts 182°
2026-04-30 19:38 36.48718 -84.05526 35022 ft 497 kts 182°
2026-04-30 19:39 36.41993 -84.03649 35033 ft 497 kts 182°
2026-04-30 19:39 36.35232 -84.01777 35037 ft 497 kts 182°
2026-04-30 19:40 36.28461 -83.99913 35025 ft 498 kts 182°
2026-04-30 19:40 36.21724 -83.98057 35026 ft 497 kts 182°
2026-04-30 19:41 36.14964 -83.96193 35014 ft 496 kts 182°
2026-04-30 19:41 36.08224 -83.94335 34982 ft 496 kts 182°
2026-04-30 19:42 36.01472 -83.92478 35013 ft 496 kts 182°
2026-04-30 19:42 35.94723 -83.90645 35033 ft 493 kts 185°
2026-04-30 19:43 35.91405 -83.90134 35028 ft 474 kts 193°
2026-04-30 19:43 35.88164 -83.90182 35024 ft 456 kts 201°
2026-04-30 19:43 35.85085 -83.90745 35014 ft 440 kts 207°
2026-04-30 19:44 35.79072 -83.92252 34999 ft 441 kts 207°
2026-04-30 19:44 35.73047 -83.93729 35004 ft 441 kts 207°
2026-04-30 19:45 35.67053 -83.95185 35000 ft 442 kts 207°
2026-04-30 19:45 35.61012 -83.96649 34986 ft 441 kts 207°
2026-04-30 19:46 35.54959 -83.98121 34984 ft 444 kts 207°
2026-04-30 19:46 35.48882 -83.99591 34969 ft 445 kts 207°
2026-04-30 19:47 35.42825 -84.01041 34975 ft 444 kts 207°
2026-04-30 19:47 35.36750 -84.02504 34980 ft 444 kts 207°
2026-04-30 19:48 35.30689 -84.03971 34975 ft 449 kts 207°
2026-04-30 19:48 35.24537 -84.05449 34978 ft 449 kts 207°
2026-04-30 19:49 35.18418 -84.06916 34972 ft 450 kts 207°
2026-04-30 19:49 35.09162 -84.09150 34944 ft 452 kts 207°
2026-04-30 19:50 35.02969 -84.10623 34989 ft 454 kts 206°
2026-04-30 19:50 34.96765 -84.12095 34987 ft 453 kts 207°
2026-04-30 19:51 34.90602 -84.13562 34996 ft 453 kts 207°
2026-04-30 19:51 34.84404 -84.15038 34934 ft 453 kts 206°
2026-04-30 19:52 34.78191 -84.16520 34978 ft 455 kts 206°
2026-04-30 19:52 34.71966 -84.17997 34971 ft 455 kts 206°
2026-04-30 19:53 34.66800 -84.19218 34969 ft 455 kts 206°
2026-04-30 19:53 34.60573 -84.20688 34961 ft 455 kts 206°
2026-04-30 19:54 34.54349 -84.22161 34956 ft 458 kts 206°
2026-04-30 19:54 34.48096 -84.23637 34958 ft 458 kts 206°
2026-04-30 19:55 34.41844 -84.25109 34959 ft 457 kts 206°
2026-04-30 19:55 34.35594 -84.26578 34956 ft 457 kts 206°
2026-04-30 19:56 34.29335 -84.28055 34949 ft 460 kts 205°
2026-04-30 19:56 34.23044 -84.29537 34959 ft 461 kts 205°
2026-04-30 19:57 34.16753 -84.31005 34956 ft 460 kts 205°
2026-04-30 19:57 34.10462 -84.32465 34965 ft 460 kts 205°
2026-04-30 19:58 34.04183 -84.33938 34930 ft 460 kts 205°
2026-04-30 19:58 33.97892 -84.35412 34938 ft 461 kts 205°
2026-04-30 19:59 33.91595 -84.36876 34949 ft 461 kts 205°
2026-04-30 20:00 33.82151 -84.39057 34906 ft 461 kts 205°
2026-04-30 20:00 33.75878 -84.40516 34959 ft 463 kts 205°
2026-04-30 20:01 33.66384 -84.42716 34977 ft 463 kts 205°
2026-04-30 20:01 33.59853 -84.43467 34972 ft 486 kts 192°
2026-04-30 20:02 33.49703 -84.43229 34946 ft 487 kts 192°
2026-04-30 20:03 33.39541 -84.43019 34957 ft 486 kts 192°
2026-04-30 20:03 33.32777 -84.42890 34962 ft 486 kts 192°
2026-04-30 20:04 33.26009 -84.42756 34963 ft 486 kts 192°
2026-04-30 20:05 33.15851 -84.42550 34957 ft 486 kts 192°
2026-04-30 20:05 33.05741 -84.42342 34951 ft 486 kts 192°
2026-04-30 20:06 32.98977 -84.42197 34914 ft 487 kts 192°
2026-04-30 20:06 32.92203 -84.42065 34922 ft 487 kts 192°
2026-04-30 20:07 32.85422 -84.41936 34926 ft 487 kts 192°
2026-04-30 20:08 32.75236 -84.41733 34900 ft 488 kts 192°
2026-04-30 20:08 32.68441 -84.41599 34910 ft 490 kts 192°
2026-04-30 20:09 32.61610 -84.41464 34911 ft 491 kts 192°
2026-04-30 20:09 32.51342 -84.41247 34918 ft 492 kts 192°
2026-04-30 20:10 32.41055 -84.41033 34934 ft 493 kts 191°
2026-04-30 20:11 32.30770 -84.40831 34944 ft 493 kts 191°
2026-04-30 20:11 32.23957 -84.40697 34944 ft 493 kts 191°
2026-04-30 20:12 32.13677 -84.40492 34930 ft 492 kts 191°
2026-04-30 20:13 32.06840 -84.40358 34941 ft 491 kts 191°
2026-04-30 20:13 32.00005 -84.40220 34945 ft 491 kts 191°
2026-04-30 20:14 31.93181 -84.40082 34894 ft 490 kts 191°
2026-04-30 20:14 31.86368 -84.39945 34919 ft 489 kts 191°
2026-04-30 20:15 31.79571 -84.39812 34938 ft 489 kts 191°
2026-04-30 20:15 31.72773 -84.39674 34939 ft 488 kts 191°
2026-04-30 20:16 31.65971 -84.39513 34903 ft 492 kts 187°
2026-04-30 20:16 31.62531 -84.38972 34911 ft 505 kts 178°
2026-04-30 20:16 31.59090 -84.38100 34916 ft 506 kts 178°
2026-04-30 20:17 31.52200 -84.36344 34924 ft 506 kts 178°
2026-04-30 20:17 31.45317 -84.34595 34927 ft 506 kts 178°
2026-04-30 20:18 31.38439 -84.32854 34889 ft 506 kts 178°
2026-04-30 20:18 31.31563 -84.31122 34892 ft 505 kts 178°
2026-04-30 20:19 31.24681 -84.29394 34903 ft 505 kts 178°
2026-04-30 20:19 31.17859 -84.27683 34903 ft 505 kts 178°
2026-04-30 20:20 31.10985 -84.25960 34868 ft 504 kts 177°
2026-04-30 20:20 31.04123 -84.24236 34902 ft 504 kts 177°
2026-04-30 20:21 30.97279 -84.22515 34913 ft 503 kts 177°
2026-04-30 20:21 30.90421 -84.20805 34919 ft 503 kts 177°
2026-04-30 20:22 30.83578 -84.19098 34927 ft 503 kts 177°
2026-04-30 20:22 30.76742 -84.17399 34903 ft 501 kts 177°
2026-04-30 20:23 30.69919 -84.15705 34916 ft 501 kts 177°
2026-04-30 20:23 30.63104 -84.14009 34920 ft 501 kts 177°
2026-04-30 20:24 30.56273 -84.12306 34921 ft 501 kts 177°
2026-04-30 20:24 30.49454 -84.10616 34920 ft 500 kts 177°
2026-04-30 20:25 30.39283 -84.08105 34916 ft 500 kts 177°
2026-04-30 20:26 30.29058 -84.05647 34914 ft 500 kts 177°
2026-04-30 20:26 30.18852 -84.03378 34882 ft 495 kts 177°
2026-04-30 20:27 30.12186 -84.01189 34888 ft 512 kts 157°
2026-04-30 20:27 30.06487 -83.96035 34887 ft 525 kts 143°
2026-04-30 20:28 29.95534 -83.84882 34862 ft 527 kts 143°
2026-04-30 20:30 29.81667 -83.71037 34925 ft 527 kts 148°
2026-04-30 20:31 29.62877 -83.58525 34917 ft 520 kts 155°
2026-04-30 20:32 29.47126 -83.48247 34937 ft 520 kts 155°
2026-04-30 20:33 29.37675 -83.42081 34934 ft 520 kts 155°
2026-04-30 20:34 29.28260 -83.35966 34939 ft 519 kts 155°
2026-04-30 20:35 29.19496 -83.31594 34946 ft 511 kts 165°
2026-04-30 20:35 29.09496 -83.27276 34944 ft 511 kts 165°
2026-04-30 20:36 29.02869 -83.24415 34922 ft 511 kts 164°
2026-04-30 20:37 28.92854 -83.20106 34937 ft 512 kts 164°
2026-04-30 20:37 28.86173 -83.17229 34944 ft 512 kts 164°
2026-04-30 20:38 28.79553 -83.14385 34950 ft 512 kts 164°
2026-04-30 20:38 28.72878 -83.11516 34938 ft 512 kts 163°
2026-04-30 20:39 28.62865 -83.07236 34947 ft 512 kts 163°
2026-04-30 20:40 28.52852 -83.02959 34956 ft 512 kts 163°
2026-04-30 20:40 28.46220 -83.00128 34940 ft 512 kts 163°
2026-04-30 20:41 28.36214 -82.95858 34963 ft 511 kts 163°
2026-04-30 20:41 28.29509 -82.93250 34961 ft 505 kts 172°
2026-04-30 20:42 28.22605 -82.92057 34969 ft 501 kts 176°
2026-04-30 20:43 28.12227 -82.90386 34953 ft 501 kts 176°
2026-04-30 20:43 28.05346 -82.89273 34963 ft 501 kts 176°
2026-04-30 20:44 27.94959 -82.87594 34972 ft 501 kts 176°
2026-04-30 20:45 27.81155 -82.85384 34954 ft 501 kts 176°
2026-04-30 20:45 27.74248 -82.84274 34956 ft 501 kts 175°
2026-04-30 20:46 27.60471 -82.81639 34962 ft 502 kts 174°
2026-04-30 20:47 27.50132 -82.79627 34965 ft 501 kts 174°
2026-04-30 20:48 27.39853 -82.77687 34973 ft 501 kts 174°
2026-04-30 20:48 27.32975 -82.76390 34976 ft 501 kts 174°
2026-04-30 20:49 27.26101 -82.75089 34957 ft 500 kts 174°
2026-04-30 20:50 27.15780 -82.73140 34963 ft 500 kts 174°
2026-04-30 20:50 27.08945 -82.71853 34963 ft 500 kts 174°
2026-04-30 20:51 27.02065 -82.70561 34968 ft 500 kts 174°
2026-04-30 20:51 26.95262 -82.68802 34969 ft 505 kts 161°
2026-04-30 20:51 26.92084 -82.67091 34961 ft 507 kts 150°
2026-04-30 20:52 26.86393 -82.62389 34958 ft 509 kts 143°
2026-04-30 20:53 26.78055 -82.55103 34971 ft 509 kts 143°
2026-04-30 20:53 26.72466 -82.50247 34970 ft 509 kts 143°
2026-04-30 20:54 26.64081 -82.42952 34965 ft 509 kts 143°
2026-04-30 20:55 26.55690 -82.35674 34973 ft 508 kts 144°
2026-04-30 20:55 26.50109 -82.30839 34979 ft 507 kts 144°
2026-04-30 20:56 26.41766 -82.23626 34978 ft 507 kts 144°
2026-04-30 20:57 26.33386 -82.16392 34970 ft 507 kts 143°
2026-04-30 20:57 26.27820 -82.11594 34978 ft 506 kts 143°
2026-04-30 20:58 26.19509 -82.04444 34855 ft 491 kts 143°
2026-04-30 20:58 26.16851 -82.02156 34366 ft 487 kts 144°
2026-04-30 20:58 26.14165 -81.99850 33732 ft 486 kts 144°
2026-04-30 20:59 26.08934 -81.95358 33129 ft 469 kts 144°
2026-04-30 20:59 26.06329 -81.93128 32221 ft 475 kts 144°
2026-04-30 21:00 26.01119 -81.88671 31070 ft 468 kts 144°
2026-04-30 21:00 25.96002 -81.84295 30091 ft 460 kts 144°
2026-04-30 21:01 25.90972 -81.79991 28946 ft 452 kts 144°
2026-04-30 21:01 25.88426 -81.77924 28353 ft 448 kts 150°
2026-04-30 21:01 25.83174 -81.74312 27195 ft 443 kts 150°
2026-04-30 21:02 25.80569 -81.72527 26732 ft 438 kts 150°
2026-04-30 21:02 25.77980 -81.70753 26264 ft 434 kts 150°
2026-04-30 21:02 25.75423 -81.68997 25785 ft 431 kts 149°
2026-04-30 21:02 25.72882 -81.67250 25310 ft 428 kts 149°
2026-04-30 21:03 25.70378 -81.65524 24808 ft 426 kts 149°
2026-04-30 21:03 25.67869 -81.63795 24323 ft 424 kts 149°
2026-04-30 21:03 25.65366 -81.62074 23803 ft 423 kts 149°
2026-04-30 21:03 25.62863 -81.60357 23254 ft 422 kts 149°
2026-04-30 21:04 25.60373 -81.58652 22719 ft 420 kts 149°
2026-04-30 21:04 25.57881 -81.56950 22204 ft 418 kts 149°
2026-04-30 21:04 25.52904 -81.53669 21181 ft 413 kts 158°
2026-04-30 21:05 25.50181 -81.52770 20672 ft 407 kts 175°
2026-04-30 21:05 25.47387 -81.52735 20234 ft 398 kts 191°
2026-04-30 21:05 25.44756 -81.53524 19822 ft 387 kts 206°
2026-04-30 21:05 25.42261 -81.54677 19336 ft 386 kts 207°
2026-04-30 21:06 25.39823 -81.55810 18976 ft 382 kts 207°
2026-04-30 21:06 25.37383 -81.56944 18574 ft 379 kts 206°
2026-04-30 21:06 25.34958 -81.58069 18176 ft 377 kts 206°
2026-04-30 21:06 25.32547 -81.59185 17726 ft 374 kts 206°
2026-04-30 21:07 25.30147 -81.60293 17301 ft 371 kts 206°
2026-04-30 21:07 25.27776 -81.61388 16882 ft 368 kts 206°
2026-04-30 21:07 25.25418 -81.62477 16473 ft 365 kts 206°
2026-04-30 21:07 25.23085 -81.63553 16068 ft 362 kts 206°
2026-04-30 21:08 25.20765 -81.64620 15675 ft 360 kts 205°
2026-04-30 21:08 25.18462 -81.65679 15284 ft 357 kts 205°
2026-04-30 21:08 25.16181 -81.66731 14830 ft 352 kts 205°
2026-04-30 21:08 25.13934 -81.67770 14142 ft 349 kts 205°
2026-04-30 21:09 25.11735 -81.68786 13458 ft 344 kts 205°
2026-04-30 21:09 25.09538 -81.69797 12803 ft 338 kts 204°
2026-04-30 21:09 25.07397 -81.70782 12364 ft 326 kts 205°
2026-04-30 21:09 25.05324 -81.71735 11949 ft 317 kts 205°
2026-04-30 21:10 25.03302 -81.72664 11716 ft 311 kts 205°
2026-04-30 21:10 25.01309 -81.73580 11384 ft 309 kts 205°
2026-04-30 21:10 24.99348 -81.74484 11032 ft 309 kts 205°
2026-04-30 21:10 24.97369 -81.75399 10689 ft 307 kts 205°
2026-04-30 21:11 24.95396 -81.76311 10344 ft 306 kts 205°
2026-04-30 21:11 24.93433 -81.77215 10003 ft 304 kts 205°
2026-04-30 21:11 24.91500 -81.78100 9667 ft 303 kts 205°
2026-04-30 21:11 24.89545 -81.78995 9299 ft 301 kts 205°
2026-04-30 21:12 24.87665 -81.79978 8935 ft 297 kts 214°
2026-04-30 21:12 24.85931 -81.81206 8560 ft 295 kts 214°
2026-04-30 21:12 24.84215 -81.82424 8086 ft 292 kts 214°
2026-04-30 21:12 24.82512 -81.83630 7569 ft 289 kts 214°
2026-04-30 21:13 24.80823 -81.84825 6967 ft 286 kts 214°
2026-04-30 21:13 24.79716 -81.85608 6574 ft 284 kts 214°
2026-04-30 21:13 24.78055 -81.86780 5947 ft 282 kts 213°
2026-04-30 21:13 24.75878 -81.88318 5131 ft 278 kts 214°
2026-04-30 21:14 24.74787 -81.89090 4765 ft 275 kts 214°
2026-04-30 21:14 24.73202 -81.90210 4271 ft 267 kts 214°
2026-04-30 21:14 24.71658 -81.91300 3844 ft 258 kts 214°
2026-04-30 21:14 24.70153 -81.92366 3431 ft 258 kts 214°
2026-04-30 21:15 24.68693 -81.93400 3329 ft 245 kts 214°
2026-04-30 21:15 24.67290 -81.94393 3245 ft 235 kts 214°
2026-04-30 21:15 24.65931 -81.95354 3146 ft 233 kts 214°
2026-04-30 21:15 24.64565 -81.96304 3042 ft 232 kts 209°
2026-04-30 21:16 24.63037 -81.96856 2930 ft 232 kts 187°
2026-04-30 21:16 24.61454 -81.96873 2787 ft 224 kts 180°
2026-04-30 21:16 24.59915 -81.96846 2668 ft 217 kts 180°
2026-04-30 21:16 24.58433 -81.96824 2536 ft 210 kts 180°
2026-04-30 21:17 24.57015 -81.96646 2438 ft 200 kts 159°
2026-04-30 21:17 24.55947 -81.95798 2305 ft 184 kts 127°
2026-04-30 21:17 24.55455 -81.94551 2220 ft 180 kts 98°
2026-04-30 21:17 24.55436 -81.93176 2106 ft 180 kts 89°
2026-04-30 21:18 24.55454 -81.91796 1998 ft 180 kts 89°
2026-04-30 21:18 24.55468 -81.90419 1894 ft 179 kts 89°
2026-04-30 21:18 24.55480 -81.89085 1786 ft 166 kts 89°
2026-04-30 21:18 24.55493 -81.87849 1710 ft 156 kts 89°
2026-04-30 21:19 24.55505 -81.86691 1613 ft 151 kts 89°
2026-04-30 21:19 24.55518 -81.85529 1523 ft 149 kts 89°
2026-04-30 21:19 24.55531 -81.84403 1405 ft 149 kts 89°
2026-04-30 21:19 24.55542 -81.83265 1191 ft 148 kts 90°
2026-04-30 21:20 24.55553 -81.82139 1047 ft 147 kts 89°
2026-04-30 21:20 24.55565 -81.81015 949 ft 149 kts 89°
2026-04-30 21:20 24.55582 -81.79868 721 ft 148 kts 90°
2026-04-30 21:20 24.55597 -81.78743 468 ft 146 kts 90°
2026-04-30 21:21 24.55603 -81.77637 203 ft 146 kts 92°
2026-04-30 21:21 24.55610 -81.76526 16 ft 143 kts 92°
2026-04-30 21:21 24.55618 -81.75380 20 ft 28 kts 90°
2026-04-30 21:22 24.55594 -81.75257 19 ft 12 kts 148°
2026-04-30 21:22 24.55489 -81.75408 21 ft 8 kts 266°
2026-04-30 21:23 24.55466 -81.75449 20 ft 6 kts 189°
2026-04-30 21:23 24.55436 -81.75466 19 ft 4 kts 247°
2026-04-30 21:23 24.55435 -81.75490 19 ft 0 kts 269°